This is the latest recevied weather packets stored in our database for station/object N0NPO. If no packets are shown the sender has not sent any weather packets the latest 10 day(s).
| Time | Temp. | Humidity | Pressure | Rain* | Wind** | Luminosity | Snow |
|---|---|---|---|---|---|---|---|
| 1777788387 | 11.11° C | 1% | 1015.8 hPa | 0 mm | - | 0 W/m² | - |
| 1777788082 | 11.11° C | 1% | 1015.9 hPa | 0 mm | - | 0 W/m² | - |
| 1777787777 | 11.67° C | 1% | 1015.9 hPa | 0 mm | - | 0 W/m² | - |
| 1777787474 | 11.67° C | 1% | 1015.7 hPa | 0 mm | - | 0 W/m² | - |
| 1777787169 | 11.11° C | 1% | 1015.7 hPa | 0 mm | - | 0 W/m² | - |
| 1777786866 | 11.11° C | 1% | 1015.7 hPa | 0 mm | - | 0 W/m² | - |
| 1777786564 | 11.11° C | 1% | 1015.6 hPa | 0 mm | - | 0 W/m² | - |
| 1777786262 | 11.67° C | 1% | 1015.6 hPa | 0 mm | - | 0 W/m² | - |
| 1777785958 | 11.11° C | 1% | 1015.7 hPa | 0 mm | - | 0 W/m² | - |
| 1777785655 | 11.11° C | 1% | 1015.6 hPa | 0 mm | - | 0 W/m² | - |
| 1777785350 | 10.56° C | 1% | 1015.5 hPa | 0 mm | - | 0 W/m² | - |
| 1777785049 | 11.11° C | 1% | 1015.7 hPa | 0 mm | - | 0 W/m² | - |
| 1777784744 | 11.11° C | 1% | 1015.5 hPa | 0 mm | - | 0 W/m² | - |
| 1777784442 | 11.67° C | 1% | 1015.6 hPa | 0 mm | - | 0 W/m² | - |
| 1777784138 | 11.67° C | 1% | 1015.6 hPa | 0 mm | - | 0 W/m² | - |
| 1777783836 | 11.67° C | 1% | 1015.5 hPa | 0 mm | - | 0 W/m² | - |
| 1777783532 | 11.67° C | 1% | 1015.6 hPa | 0 mm | - | 0 W/m² | - |
| 1777783230 | 11.67° C | 1% | 1015.5 hPa | 0 mm | - | 0 W/m² | - |
| 1777782926 | 12.22° C | 1% | 1015.4 hPa | 0 mm | - | 0 W/m² | - |
| 1777782623 | 12.78° C | 1% | 1015.4 hPa | 0 mm | - | 0 W/m² | - |
| 1777782320 | 12.78° C | 1% | 1015.5 hPa | 0 mm | - | 0 W/m² | - |
| 1777782016 | 12.78° C | 1% | 1015.3 hPa | 0 mm | - | 0 W/m² | - |
| 1777781713 | 12.78° C | 1% | 1015.4 hPa | 0 mm | - | 0 W/m² | - |
| 1777781411 | 12.78° C | 1% | 1015.4 hPa | 0 mm | - | 0 W/m² | - |
| 1777781108 | 12.78° C | 1% | 1015.3 hPa | 0 mm | - | 0 W/m² | - |
* Rain latest hour (hover to see other rain measurements)
** Current wind speed in m/s (hover to see current wind gust speed)